This is the latest recevied weather packets stored in our database for station/object KN1OBI-13. If no packets are shown the sender has not sent any weather packets the latest 10 day(s).
| Time | Temp. | Humidity | Pressure | Rain* | Wind** | Luminosity | Snow |
|---|---|---|---|---|---|---|---|
| 1788450392 | 22.78° C | 96% | 992.8 hPa | 0 mm | - | - | - |
| 1788449792 | 21.67° C | 97% | 992.9 hPa | 0 mm | - | - | - |
| 1788449192 | 21.11° C | 97% | 993 hPa | 0 mm | - | - | - |
| 1788448592 | 21.11° C | 97% | 993.3 hPa | 0 mm | - | - | - |
| 1788447992 | 20.56° C | 97% | 993.1 hPa | 0 mm | - | - | - |
| 1788447392 | 20.56° C | 98% | 993.7 hPa | 0 mm | - | - | - |
| 1788446792 | 20° C | 98% | 993.4 hPa | 0 mm | - | - | - |
| 1788446192 | 20° C | 98% | 993.7 hPa | 0 mm | - | - | - |
| 1788445616 | 19.44° C | 98% | 993.6 hPa | 0 mm | - | - | - |
| 1788444992 | 18.89° C | 98% | 994 hPa | 0 mm | - | - | - |
| 1788444392 | 18.89° C | 97% | 994.2 hPa | 0 mm | - | - | - |
| 1788443792 | 18.33° C | 97% | 994 hPa | 0 mm | - | - | - |
| 1788443192 | 18.33° C | 97% | 994.3 hPa | 0 mm | - | - | - |
| 1788442592 | 18.33° C | 97% | 994.3 hPa | 0 mm | - | - | - |
| 1788441992 | 18.33° C | 97% | 994.2 hPa | 0 mm | - | - | - |
| 1788441392 | 17.78° C | 97% | 994.1 hPa | 0 mm | - | - | - |
| 1788440792 | 17.78° C | 97% | 994.2 hPa | 0 mm | - | - | - |
| 1788440192 | 17.22° C | 97% | 994.4 hPa | 0 mm | - | - | - |
| 1788439592 | 17.22° C | 97% | 994.4 hPa | 0 mm | - | - | - |
| 1788438992 | 16.67° C | 96% | 994.6 hPa | 0 mm | - | - | - |
| 1788438392 | 16.67° C | 96% | 994.7 hPa | 0 mm | - | - | - |
| 1788437792 | 16.67° C | 96% | 994.6 hPa | 0 mm | - | - | - |
| 1788437192 | 16.67° C | 96% | 995 hPa | 0 mm | - | - | - |
| 1788436592 | 16.67° C | 96% | 994.9 hPa | 0 mm | - | - | - |
| 1788435992 | 16.11° C | 95% | 995 hPa | 0 mm | - | - | - |
* Rain latest hour (hover to see other rain measurements)
** Current wind speed in m/s (hover to see current wind gust speed)